Location: Unspecified
(0.0000°N, 0.0000°E)
Time: 08:12:46
(UTC+01:00)

Orbus 21S - Visible Passes

Search period start: 13 December 2017 00:00
Search period end: 23 December 2017 00:00
Orbit: 306 x 32980 km, 24.5° (Epoch: 12 December)

Date Brightness Start Highest point End Pass type
(mag) Time Alt. Az. Time Alt. Az. Time Alt. Az.
13 Dec 8.0 15:48:45 10° WSW 18:35:21 65° SW 00:19:28 48° NW visible
14 Dec 6.0 10:46:43 10° WSW 18:02:54 49° E 19:38:40 10° ENE visible
15 Dec 8.1 16:08:27 10° WSW 18:37:15 61° SW 00:37:09 42° NW visible
16 Dec 6.3 11:04:43 10° WSW 18:20:32 56° E 19:56:19 15° ENE visible
17 Dec 8.1 16:28:28 10° WSW 18:44:59 56° SW 00:54:46 35° NW visible
18 Dec 6.6 11:22:45 10° WSW 18:37:43 63° E 20:13:57 19° ENE visible
19 Dec 3.7 06:29:52 10° NNW 06:31:18 16° NNE 06:33:04 10° ENE visible
19 Dec 8.2 16:48:54 10° WSW 18:56:03 51° WSW 01:12:23 29° WNW visible
20 Dec 6.9 11:40:51 10° WSW 18:53:55 70° E 20:31:31 24° ENE visible
21 Dec 8.3 17:09:53 10° WSW 19:09:01 45° WSW 01:29:57 23° WNW visible
22 Dec 7.1 11:58:58 10° WSW 19:07:53 77° ENE 20:49:05 28° NE visible
